sat.trackr.live / text

‹ back to catalog

KOSEN-1

NORAD 49402 · 2021-102H

PAYLOAD ACTIVE UNKNOWN

§ Identity

Operator
Country
JPN
Launch date
2021-11-09
Launch site
KSCUT
Launch vehicle
Mass (kg)
RCS (m²)

External: N2YO · Heavens-Above · Gunter

§ Orbital elements

Epoch: 2026-09-15T13:09:57.228192Z

Period
94.24 min
Inclination
97.3103°
Eccentricity
0.0011694
Mean motion
15.27939033 rev/d
Perigee alt
474.0 km
Apogee alt
490.0 km
Semi-major
6,860.1 km
B*
2.0804e-4
RAAN
298.9823°
Arg perigee
243.7460°
Mean anomaly
116.2578°
Rev number
26,781

§ Raw data

KOSEN-11 49402U 21102H   26258.54857903  .00005609  00000+0  20804-3 0  99952 49402  97.3103 298.9823 0011694 243.7460 116.2578 15.27939033267818

JSON: /api/v1/satellites/49402 · /tle

For live sub-satellite position, see the globe view (requires WebGL).

§ Visibility from observer

Set your observer location to see the next 7 days of passes ≥ 10°. The values pass through the URL so the page stays shareable.

No JS? Fill the form by hand. The geolocation button needs JavaScript.

§ Radio — SatNOGS DB

ModeDescriptionDownlinkUplink
AFSK Mode HF/U - Onboard SDR 435.525 MHz 21.125 MHz–21.150 MHz
AFSK Mode U - AFSK1k2 435.525 MHz
CW Mode U - CW Beacon 435.525 MHz
GMSK Mode U - GMSK9k6 435.525 MHz

4 transmitters · refreshed weekly from db.satnogs.org